Satellite-Ground Cal/Val Region Overpasses Predictions

Prediction of Satellite NPP Overpassing Cal/Val Region: PacNW

Region Location: (Latitude: 10.00, Longitude: 139.50) to (Latitude: 22.70, Longitude: 165.60).

Table of predicted overpasses for the next 14.0 days since TLE Epoch: 11/1/2019
Interval Starting Time Starting Location Ending Time Ending Location
1 11/02/2019 02:14:54 ( 12.66, 165.59) 11/02/2019 02:17:45 ( 22.70, 163.19)
2 11/02/2019 03:55:39 ( 10.02, 140.83) 11/02/2019 03:57:16 ( 15.72, 139.51)
3 11/02/2019 14:46:01 ( 22.70, 163.43) 11/02/2019 14:49:37 ( 10.01, 160.42)
4 11/03/2019 03:36:36 ( 10.01, 145.59) 11/03/2019 03:40:12 ( 22.69, 142.57)
5 11/03/2019 14:30:04 ( 11.85, 165.59) 11/03/2019 14:30:35 ( 10.03, 165.18)
6 11/03/2019 16:08:30 ( 22.64, 142.80) 11/03/2019 16:12:05 ( 10.02, 139.80)
7 11/04/2019 03:17:35 ( 10.06, 150.33) 11/04/2019 03:21:10 ( 22.68, 147.33)
8 11/04/2019 15:49:27 ( 22.65, 147.56) 11/04/2019 15:53:02 ( 10.03, 144.56)
9 11/05/2019 02:58:32 ( 10.04, 155.09) 11/05/2019 03:02:07 ( 22.67, 152.09)
10 11/05/2019 15:30:25 ( 22.67, 152.32) 11/05/2019 15:34:00 ( 10.04, 149.32)
11 11/06/2019 02:39:30 ( 10.03, 159.85) 11/06/2019 02:43:05 ( 22.65, 156.86)
12 11/06/2019 15:11:23 ( 22.68, 157.08) 11/06/2019 15:14:58 ( 10.05, 154.08)
13 11/07/2019 02:20:27 ( 10.02, 164.61) 11/07/2019 02:24:02 ( 22.64, 161.62)
14 11/07/2019 14:52:20 ( 22.69, 161.84) 11/07/2019 14:55:56 ( 10.01, 158.83)
15 11/08/2019 03:42:55 ( 10.02, 144.00) 11/08/2019 03:46:31 ( 22.70, 140.98)
16 11/08/2019 14:34:28 ( 18.59, 165.59) 11/08/2019 14:36:54 ( 10.02, 163.59)
17 11/08/2019 16:14:48 ( 22.69, 141.22) 11/08/2019 16:16:49 ( 15.59, 139.50)
18 11/09/2019 03:23:52 ( 10.01, 148.76) 11/09/2019 03:27:28 ( 22.69, 145.74)
19 11/09/2019 15:55:45 ( 22.70, 145.98) 11/09/2019 15:59:21 ( 10.02, 142.97)
20 11/10/2019 03:04:51 ( 10.06, 153.50) 11/10/2019 03:08:26 ( 22.68, 150.50)
21 11/10/2019 15:36:44 ( 22.65, 150.73) 11/10/2019 15:40:19 ( 10.03, 147.73)
22 11/11/2019 02:45:48 ( 10.05, 158.26) 11/11/2019 02:49:23 ( 22.67, 155.26)
23 11/11/2019 15:17:41 ( 22.66, 155.49) 11/11/2019 15:21:16 ( 10.04, 152.49)
24 11/12/2019 02:26:46 ( 10.04, 163.02) 11/12/2019 02:30:21 ( 22.66, 160.02)
25 11/12/2019 14:58:39 ( 22.67, 160.25) 11/12/2019 15:02:14 ( 10.05, 157.25)
26 11/13/2019 02:10:23 ( 19.37, 165.59) 11/13/2019 02:11:19 ( 22.65, 164.78)
27 11/13/2019 03:49:13 ( 10.04, 142.41) 11/13/2019 03:52:41 ( 22.25, 139.51)
28 11/13/2019 14:39:36 ( 22.68, 165.01) 11/13/2019 14:43:11 ( 10.05, 162.01)
29 11/13/2019 16:21:06 ( 22.67, 139.63) 11/13/2019 16:21:14 ( 22.20, 139.51)
30 11/14/2019 03:30:11 ( 10.03, 147.16) 11/14/2019 03:33:46 ( 22.66, 144.17)
31 11/14/2019 16:02:04 ( 22.68, 144.39) 11/14/2019 16:05:39 ( 10.05, 141.39)
32 11/15/2019 03:11:09 ( 10.03, 151.92) 11/15/2019 03:14:44 ( 22.65, 148.93)


NCC Satellite Cal/Val Overpasses Prediction Service
